Regional Weather Roundup
Issued by NWS

Home | Current Version | Previous Version | Text Only | Print | Product List | Glossary On
Versions: 1 2 3 4 5 6 7 8 9 10 11 12 13 14 15 16 17 18 19 20 21 22 23 24 25 26 27 28 29 30 31 32 33 34 35 36 37 38 39 40 41 42 43 44 45 46 47 48 49 50
000
ASUS46 KSTO 261015
RWRCA

NORTHERN AND CENTRAL CA REGIONAL WEATHER ROUNDUP
NATIONAL WEATHER SERVICE SACRAMENTO CA
300 AM PDT TUE JUL 26 2016

NOTE: FAIR INDICATES FEW OR NO CLOUDS BELOW 12,000 FEET WITH NO
SIGNIFICANT WEATHER AND/OR OBSTRUCTIONS TO VISIBILITY.

CAZ001-003-261100-
NORTHWEST AREA

CITY           SKY/WX    TMP DP  RH WIND       PRES   REMARKS
CRESCENT CITY  FOG       55  54  96 W5        30.02S VSB 1/2
UKIAH          CLEAR     64  51  62 CALM      29.90S
$$

CAZ006-505>513-261100-
BAY AREA

CITY           SKY/WX    TMP DP  RH WIND       PRES   REMARKS
SANTA ROSA     CLEAR     54  50  86 CALM      29.89S
SAN RAFAEL     N/A       61  MM  MM MISG
NAPA           CLEAR     53  52  96 SE5       29.89S
CONCORD        CLEAR     62  54  74 N5        29.88R
OAKLAND CITY   N/A       56  MM  MM MISG
OAKLAND        PTCLDY    57  54  89 NW5       29.90S
SAN FRAN CITY  N/A       51  MM  97 MISG
SAN FRAN ARPT  PTCLDY    54  50  86 W10       29.90S
LIVERMORE      CLEAR     65  47  52 CALM      29.88S
HAYWARD        CLEAR     60  51  72 NW3       29.89S
REDWOOD CITY   N/A       58  MM  84 MISG
MOFFETT ARPT   CLEAR     63  56  78 CALM      29.90S
SAN JOSE ARPT  PTCLDY    64  58  80 CALM      29.90R
$$
CAZ034-037-514>518-261100-
CENTRAL COAST

CITY           SKY/WX    TMP DP  RH WIND       PRES   REMARKS
WATSONVILLE    CLOUDY    54  53  97 CALM      29.92S FOG
SALINAS        FOG       54  52  93 SE5       29.92S VSB 3/4
MONTEREY       FOG       51  51 100 E3        29.92S VSB 1/4
SAN LUIS OBISP CLOUDY    53  51  93 NW5       29.91F FOG
SANTA MARIA    FOG       54  54 100 CALM      29.92S VSB 1/2
$$
CAZ015-016-261100-
NORTHERN SACRAMENTO VALLEY

CITY           SKY/WX    TMP DP  RH WIND       PRES   REMARKS
REDDING        CLEAR     74  50  42 CALM      29.88S
RED BLUFF      CLEAR     72  52  49 NW7       29.88R
OROVILLE       CLEAR     71  56  58 CALM      29.87R
$$
CAZ016>018-261100-
SOUTHERN SACRAMENTO VALLEY

CITY           SKY/WX    TMP DP  RH WIND       PRES   REMARKS
AUBURN         CLEAR     75  46  35 E3        29.94S
BEALE AFB      CLEAR     65  51  59 W6        29.83S
LINCOLN        FAIR      64  48  55 CALM      29.84R
MARYSVILLE     CLEAR     66  54  65 CALM      29.85S
SAC INTL ARPT  CLEAR     70  54  56 S8        29.83S
MATHER AIRPORT CLEAR     63  46  55 SE6       29.85
DOWNTOWN SAC   N/A       69  MM  MM MISG
SAC EXEC ARPT  CLEAR     64  53  67 CALM      29.85R
VACAVILLE      CLEAR     62  51  67 N3        29.85R
TRAVIS AFB     CLEAR     63  54  72 SW15      29.82R
$$
CAZ019>021-261100-
SAN JOAQUIN VALLEY

CITY           SKY/WX    TMP DP  RH WIND       PRES   REMARKS
STOCKTON       PTCLDY    66  49  54 N3        29.85S
MODESTO        CLEAR     74  48  39 N5        29.85R
MERCED         CLEAR     67  55  65 W8        29.84R
LEMOORE        CLEAR     73  46  38 NW9       29.85R
FRESNO         CLEAR     76  53  44 NW5       29.85S
HANFORD        CLEAR     77  48  35 N6        29.85R
PORTERVILLE    CLEAR     70  52  52 S5        29.86S
BAKERSFIELD    CLEAR     76  38  25 NE5       29.87R
$$
CAZ011-012-071-261100-
NORTHERN MOUNTAINS

CITY           SKY/WX    TMP DP  RH WIND       PRES   REMARKS
YREKA          CLEAR     67  48  50 CALM      30.08S
MOUNT SHASTA   CLEAR     63  51  65 CALM      30.11S
ALTURAS        CLEAR     58  41  53 CALM      30.16S
$$
CAZ011-012-071-261100-
SIERRA NEVADA MTNS

CITY           SKY/WX    TMP DP  RH WIND       PRES   REMARKS
TRUCKEE        CLEAR     43  37  81 CALM      30.29R
TAHOE VLY ARPT CLEAR     45  38  76 S5        30.29R
MAMMOTH LAKES    N/A     56  24  28 N3        30.34R
$$



USA.gov is the U.S. government's official web portal to all federal, state and local government web resources and services.